User: anonymous   Login
Location: Plum
(40.5000°N, 79.7500°W)
Time: 22:44:05
(UTC-04:00)
Language:

MOZ.5/SAFIR/RUBIN 5/SL-8 - Orbit

View from above orbital plane
View from above orbital plane
View from above satellite
View from above satellite

Ground track
Ground track

The orbit data is extracted from the following two-line orbital elements,

1 28898U 05043G   16146.46035579  .00000090  00000-0  27885-4 0  9997
2 28898  97.8773 308.3039 0019075 330.6847  29.3283 14.60097849563253
Epoch (UTC): 25 May 2016 11:02:54
Eccentricity: 0.0019075
inclination: 97.8773°
perigee height: 679 km
apogee height: 706 km
right ascension of ascending node: 308.3039°
argument of perigee: 330.6847°
revolutions per day: 14.60097849
mean anomaly at epoch: 29.3283°
orbit number at epoch: 56325

The dashed part of the orbit path shows where the satellite is in the earth's shadow,  

DLR